Time,TemperatureF,DewpointF,PressureIn,WindDirection,WindDirectionDegrees,WindSpeedMPH,WindSpeedGustMPH,Humidity,HourlyPrecipIn,Conditions,Clouds,dailyrainin,SoftwareType,DateUTC
2013-02-06 00:01:00,36.0,20.0,-100.00,SW,235,17.0,19.0,53,-99.99,,,0.00,,2013-02-06 07:01:00,
2013-02-06 00:11:00,36.0,20.0,-100.00,SW,235,17.0,19.0,53,-99.99,,,0.00,,2013-02-06 07:11:00,
2013-02-06 00:21:00,36.0,20.0,-100.00,SW,235,17.0,19.0,53,-99.99,,,0.00,,2013-02-06 07:21:00,
2013-02-06 00:52:00,36.0,17.0,-100.00,WSW,255,9.0,11.0,46,-99.99,,,0.00,,2013-02-06 07:52:00,
2013-02-06 01:01:00,36.0,17.0,-100.00,WSW,255,9.0,11.0,46,-99.99,,,0.00,,2013-02-06 08:01:00,
2013-02-06 01:11:00,36.0,17.0,-100.00,WSW,255,9.0,11.0,46,-99.99,,,0.00,,2013-02-06 08:11:00,
2013-02-06 01:21:00,36.0,17.0,-100.00,WSW,255,9.0,11.0,46,-99.99,,,0.00,,2013-02-06 08:21:00,
2013-02-06 01:53:00,35.0,17.0,-100.00,NW,315,13.0,14.0,47,-99.99,,,0.00,,2013-02-06 08:53:00,
2013-02-06 02:01:00,35.0,17.0,-100.00,NW,315,13.0,14.0,47,-99.99,,,0.00,,2013-02-06 09:01:00,
2013-02-06 02:11:00,35.0,17.0,-100.00,NW,315,13.0,14.0,47,-99.99,,,0.00,,2013-02-06 09:11:00,
2013-02-06 02:21:00,35.0,17.0,-100.00,NW,315,13.0,14.0,47,-99.99,,,0.00,,2013-02-06 09:21:00,
2013-02-06 02:52:00,33.0,16.0,-100.00,West,265,1.0,1.0,49,-99.99,,,0.00,,2013-02-06 09:52:00,
2013-02-06 03:01:00,33.0,16.0,-100.00,West,265,1.0,1.0,49,-99.99,,,0.00,,2013-02-06 10:01:00,
2013-02-06 03:11:00,33.0,16.0,-100.00,West,265,1.0,1.0,49,-99.99,,,0.00,,2013-02-06 10:11:00,
2013-02-06 03:21:00,33.0,16.0,-100.00,West,265,1.0,1.0,49,-99.99,,,0.00,,2013-02-06 10:21:00,
2013-02-06 03:52:00,31.0,15.0,-100.00,SW,230,8.0,9.0,51,-99.99,,,0.00,,2013-02-06 10:52:00,
2013-02-06 04:01:00,31.0,15.0,-100.00,SW,230,8.0,9.0,51,-99.99,,,0.00,,2013-02-06 11:01:00,
2013-02-06 04:11:00,31.0,15.0,-100.00,SW,230,8.0,9.0,51,-99.99,,,0.00,,2013-02-06 11:11:00,
2013-02-06 04:22:00,31.0,15.0,-100.00,SW,230,8.0,9.0,51,-99.99,,,0.00,,2013-02-06 11:22:00,
2013-02-06 04:53:00,30.0,15.0,-100.00,WSW,255,11.0,12.0,54,-99.99,,,-99.99,,2013-02-06 11:53:00,
2013-02-06 05:01:00,30.0,15.0,-100.00,WSW,255,11.0,12.0,54,-99.99,,,-99.99,,2013-02-06 12:01:00,
2013-02-06 05:12:00,30.0,15.0,-100.00,WSW,255,11.0,12.0,54,-99.99,,,-99.99,,2013-02-06 12:12:00,
2013-02-06 05:22:00,30.0,15.0,-100.00,WSW,255,11.0,12.0,54,-99.99,,,-99.99,,2013-02-06 12:22:00,
2013-02-06 05:52:00,32.0,17.0,-100.00,SSW,205,14.0,14.0,55,-99.99,,,0.00,,2013-02-06 12:52:00,
2013-02-06 06:01:00,32.0,17.0,-100.00,SSW,205,14.0,14.0,55,-99.99,,,0.00,,2013-02-06 13:01:00,
2013-02-06 06:11:00,32.0,17.0,-100.00,SSW,205,14.0,14.0,55,-99.99,,,0.00,,2013-02-06 13:11:00,
2013-02-06 06:21:00,32.0,17.0,-100.00,SSW,205,14.0,14.0,55,-99.99,,,0.00,,2013-02-06 13:21:00,
2013-02-06 06:52:00,30.0,18.0,-100.00,SSW,195,13.0,14.0,60,-99.99,,,0.00,,2013-02-06 13:52:00,
2013-02-06 07:01:00,30.0,18.0,-100.00,SSW,195,13.0,14.0,60,-99.99,,,0.00,,2013-02-06 14:01:00,
2013-02-06 07:11:00,30.0,18.0,-100.00,SSW,195,13.0,14.0,60,-99.99,,,0.00,,2013-02-06 14:11:00,
2013-02-06 07:21:00,30.0,18.0,-100.00,SSW,195,13.0,14.0,60,-99.99,,,0.00,,2013-02-06 14:21:00,
2013-02-06 07:52:00,30.0,19.0,-100.00,SSW,205,13.0,15.0,63,-99.99,,,0.00,,2013-02-06 14:52:00,
2013-02-06 08:01:00,30.0,19.0,-100.00,SSW,205,13.0,15.0,63,-99.99,,,0.00,,2013-02-06 15:01:00,
2013-02-06 08:11:00,30.0,19.0,-100.00,SSW,205,13.0,15.0,63,-99.99,,,0.00,,2013-02-06 15:11:00,
2013-02-06 08:21:00,30.0,19.0,-100.00,SSW,205,13.0,15.0,63,-99.99,,,0.00,,2013-02-06 15:21:00,
2013-02-06 08:52:00,32.0,21.0,-100.00,SSW,205,16.0,18.0,63,-99.99,,,0.00,,2013-02-06 15:52:00,
2013-02-06 09:01:00,32.0,21.0,-100.00,SSW,205,16.0,18.0,63,-99.99,,,0.00,,2013-02-06 16:01:00,
2013-02-06 09:11:00,32.0,21.0,-100.00,SSW,205,16.0,18.0,63,-99.99,,,0.00,,2013-02-06 16:11:00,
2013-02-06 09:21:00,32.0,21.0,-100.00,SSW,205,16.0,18.0,63,-99.99,,,0.00,,2013-02-06 16:21:00,
2013-02-06 09:52:00,34.0,23.0,-100.00,SSW,200,14.0,16.0,62,-99.99,,,0.00,,2013-02-06 16:52:00,
2013-02-06 10:01:00,34.0,23.0,-100.00,SSW,200,14.0,16.0,62,-99.99,,,0.00,,2013-02-06 17:01:00,
2013-02-06 10:11:00,34.0,23.0,-100.00,SSW,200,14.0,16.0,62,-99.99,,,0.00,,2013-02-06 17:11:00,
2013-02-06 10:21:00,34.0,23.0,-100.00,SSW,200,14.0,16.0,62,-99.99,,,0.00,,2013-02-06 17:21:00,
2013-02-06 10:52:00,34.0,23.0,-100.00,SSW,210,22.0,24.0,62,-99.99,,,0.00,,2013-02-06 17:52:00,
2013-02-06 11:01:00,34.0,23.0,-100.00,SSW,210,22.0,24.0,62,-99.99,,,0.00,,2013-02-06 18:01:00,
2013-02-06 11:11:00,34.0,23.0,-100.00,SSW,210,22.0,24.0,62,-99.99,,,0.00,,2013-02-06 18:11:00,
2013-02-06 11:22:00,34.0,23.0,-100.00,SSW,210,22.0,24.0,62,-99.99,,,0.00,,2013-02-06 18:22:00,
2013-02-06 11:52:00,36.0,23.0,-100.00,SW,220,19.0,22.0,58,-99.99,,,0.00,,2013-02-06 18:52:00,
2013-02-06 12:01:00,36.0,23.0,-100.00,SW,220,19.0,22.0,58,-99.99,,,0.00,,2013-02-06 19:01:00,
2013-02-06 12:11:00,36.0,23.0,-100.00,SW,220,19.0,22.0,58,-99.99,,,0.00,,2013-02-06 19:11:00,
2013-02-06 12:21:00,36.0,23.0,-100.00,SW,220,19.0,22.0,58,-99.99,,,0.00,,2013-02-06 19:21:00,
2013-02-06 12:52:00,41.0,23.0,-100.00,SW,220,19.0,22.0,48,-99.99,,,0.00,,2013-02-06 19:52:00,
2013-02-06 13:01:00,41.0,23.0,-100.00,SW,220,19.0,22.0,48,-99.99,,,0.00,,2013-02-06 20:01:00,
2013-02-06 13:11:00,41.0,23.0,-100.00,SW,220,19.0,22.0,48,-99.99,,,0.00,,2013-02-06 20:11:00,
2013-02-06 13:21:00,41.0,23.0,-100.00,SW,220,19.0,22.0,48,-99.99,,,0.00,,2013-02-06 20:21:00,
2013-02-06 13:52:00,41.0,19.0,-100.00,West,265,22.0,27.0,41,-99.99,,,0.00,,2013-02-06 20:52:00,
2013-02-06 14:01:00,41.0,19.0,-100.00,West,265,22.0,27.0,41,-99.99,,,0.00,,2013-02-06 21:01:00,
2013-02-06 14:11:00,41.0,19.0,-100.00,West,265,22.0,27.0,41,-99.99,,,0.00,,2013-02-06 21:11:00,
2013-02-06 14:21:00,41.0,19.0,-100.00,West,265,22.0,27.0,41,-99.99,,,0.00,,2013-02-06 21:21:00,
2013-02-06 14:52:00,41.0,19.0,-100.00,West,280,14.0,17.0,40,-99.99,,,0.00,,2013-02-06 21:52:00,
2013-02-06 15:01:00,41.0,19.0,-100.00,West,280,14.0,17.0,40,-99.99,,,0.00,,2013-02-06 22:01:00,
2013-02-06 15:11:00,41.0,19.0,-100.00,West,280,14.0,17.0,40,-99.99,,,0.00,,2013-02-06 22:11:00,
2013-02-06 15:21:00,41.0,19.0,-100.00,West,280,14.0,17.0,40,-99.99,,,0.00,,2013-02-06 22:21:00,
2013-02-06 15:52:00,39.0,20.0,-100.00,WSW,240,17.0,19.0,45,-99.99,,,0.00,,2013-02-06 22:52:00,
2013-02-06 16:01:00,39.0,20.0,-100.00,WSW,240,17.0,19.0,45,-99.99,,,0.00,,2013-02-06 23:01:00,
2013-02-06 16:11:00,39.0,20.0,-100.00,WSW,240,17.0,19.0,45,-99.99,,,0.00,,2013-02-06 23:11:00,
2013-02-06 16:21:00,39.0,20.0,-100.00,WSW,240,17.0,19.0,45,-99.99,,,0.00,,2013-02-06 23:21:00,
2013-02-06 16:52:00,38.0,21.0,-100.00,SW,225,17.0,19.0,51,-99.99,,,0.00,,2013-02-06 23:52:00,
2013-02-06 17:01:00,38.0,21.0,-100.00,SW,225,17.0,19.0,51,-99.99,,,0.00,,2013-02-07 00:01:00,
2013-02-06 17:11:00,38.0,21.0,-100.00,SW,225,17.0,19.0,51,-99.99,,,0.00,,2013-02-07 00:11:00,
2013-02-06 17:21:00,38.0,21.0,-100.00,SW,225,17.0,19.0,51,-99.99,,,0.00,,2013-02-07 00:21:00,
2013-02-06 17:52:00,33.0,17.0,-100.00,SW,215,10.0,11.0,51,-99.99,,,0.00,,2013-02-07 00:52:00,
2013-02-06 18:01:00,33.0,17.0,-100.00,SW,215,10.0,11.0,51,-99.99,,,0.00,,2013-02-07 01:01:00,
2013-02-06 18:11:00,33.0,17.0,-100.00,SW,215,10.0,11.0,51,-99.99,,,0.00,,2013-02-07 01:11:00,
2013-02-06 18:21:00,33.0,17.0,-100.00,SW,215,10.0,11.0,51,-99.99,,,0.00,,2013-02-07 01:21:00,
2013-02-06 18:52:00,32.0,19.0,-100.00,SW,225,16.0,17.0,58,-99.99,,,0.00,,2013-02-07 01:52:00,
2013-02-06 19:01:00,32.0,19.0,-100.00,SW,225,16.0,17.0,58,-99.99,,,0.00,,2013-02-07 02:01:00,
2013-02-06 19:11:00,32.0,19.0,-100.00,SW,225,16.0,17.0,58,-99.99,,,0.00,,2013-02-07 02:11:00,
2013-02-06 19:21:00,32.0,19.0,-100.00,SW,225,16.0,17.0,58,-99.99,,,0.00,,2013-02-07 02:21:00,
2013-02-06 20:02:00,31.0,19.0,-100.00,SSW,205,13.0,14.0,61,-99.99,,,0.00,,2013-02-07 03:02:00,
2013-02-06 20:11:00,31.0,19.0,-100.00,SSW,205,13.0,14.0,61,-99.99,,,0.00,,2013-02-07 03:11:00,
2013-02-06 20:21:00,31.0,19.0,-100.00,SSW,205,13.0,14.0,61,-99.99,,,0.00,,2013-02-07 03:21:00,
2013-02-06 20:52:00,32.0,20.0,-100.00,SW,215,16.0,17.0,59,-99.99,,,0.00,,2013-02-07 03:52:00,
2013-02-06 21:01:00,32.0,20.0,-100.00,SW,215,16.0,17.0,59,-99.99,,,0.00,,2013-02-07 04:01:00,
2013-02-06 21:11:00,32.0,20.0,-100.00,SW,215,16.0,17.0,59,-99.99,,,0.00,,2013-02-07 04:11:00,
2013-02-06 21:22:00,32.0,20.0,-100.00,SW,215,16.0,17.0,59,-99.99,,,0.00,,2013-02-07 04:22:00,
2013-02-06 21:53:00,29.0,17.0,-100.00,South,190,12.0,13.0,61,-99.99,,,0.00,,2013-02-07 04:53:00,
2013-02-06 22:01:00,29.0,17.0,-100.00,South,190,12.0,13.0,61,-99.99,,,0.00,,2013-02-07 05:01:00,
2013-02-06 22:11:00,29.0,17.0,-100.00,South,190,12.0,13.0,61,-99.99,,,0.00,,2013-02-07 05:11:00,
2013-02-06 22:21:00,29.0,17.0,-100.00,South,190,12.0,13.0,61,-99.99,,,0.00,,2013-02-07 05:21:00,
2013-02-06 22:52:00,30.0,18.0,-100.00,SSW,205,14.0,15.0,59,-99.99,,,0.00,,2013-02-07 05:52:00,
2013-02-06 23:02:00,30.0,18.0,-100.00,SSW,205,14.0,15.0,59,-99.99,,,0.00,,2013-02-07 06:02:00,
2013-02-06 23:11:00,30.0,18.0,-100.00,SSW,205,14.0,15.0,59,-99.99,,,0.00,,2013-02-07 06:11:00,
2013-02-06 23:22:00,30.0,18.0,-100.00,SSW,205,14.0,15.0,59,-99.99,,,0.00,,2013-02-07 06:22:00,
2013-02-06 23:52:00,31.0,18.0,-100.00,SSW,195,10.0,11.0,58,-99.99,,,0.00,,2013-02-07 06:52:00,